Sandra Hugh — WDD9019 — position and weather

sailwx.info

Track history (hours):
 
Tides and Currents Weather Stations Pressure Air Temp Water Temp Dewpoint Dewpoint Depression Visibility Wind Speed Wind Dir Waves Ship Positions

Sandra Hugh

Owner: Sortwell Inc., DBA AmNav Maritime Services, Oakland, CA. More information available from US FCC via Universal Licensing System and Coast Guard Vessel Documentation Center.

Last reported at 2014-Oct-31 03:33 UTC. Time now 2014-Oct-31 04:01 UTC.
Position N 37°48' W 122°18'.

Length 24 m; draft 4.9 m.

Type: Tug. MMSI: 367305920.

Date/timePositionNaut miles runAvg speedWind from/ knotsBaromVisibWave heightAir tempDewpointWater temp
2014-Oct-31 03:33N 37°48' W 122°18'1 0.8
2014-Oct-31 02:32N 37°48' W 122°19'1 1.1
2014-Oct-31 01:32N 37°48' W 122°17'0 0.0
2014-Oct-31 00:32N 37°48' W 122°17'2 1.7
2014-Oct-30 23:31N 37°48' W 122°19'2 2.5
2014-Oct-30 22:33N 37°48' W 122°22'3 3.1
2014-Oct-30 21:31N 37°49' W 122°19'0 0.0
2014-Oct-30 20:31N 37°49' W 122°19'0 0.0
2014-Oct-30 19:31N 37°49' W 122°19'0 0.0
2014-Oct-30 18:31N 37°49' W 122°19'0 0.0
2014-Oct-30 17:31N 37°49' W 122°19'0 0.0
2014-Oct-30 16:31N 37°49' W 122°19'0 0.0
2014-Oct-30 15:31N 37°49' W 122°19'2 1.8
2014-Oct-30 14:33N 37°48' W 122°19'3 2.7
2014-Oct-30 13:32N 37°47' W 122°22'2 2.4
2014-Oct-30 12:32N 37°49' W 122°20'0 0.0
2014-Oct-30 11:32N 37°49' W 122°20'0 0.0
2014-Oct-30 10:32N 37°49' W 122°20'0 0.0
2014-Oct-30 09:32N 37°49' W 122°20'0 0.0
2014-Oct-30 08:32N 37°49' W 122°20'0 0.0
2014-Oct-30 07:32N 37°49' W 122°20'0 0.0
2014-Oct-30 06:32N 37°49' W 122°20'6 6.3
2014-Oct-30 05:33N 37°54' W 122°23'1 1.0
2014-Oct-30 04:31N 37°55' W 122°22'0 0.1
2014-Oct-30 03:32N 37°55' W 122°22'0 0.0
2014-Oct-30 02:32N 37°55' W 122°22'0 0.0
2014-Oct-30 01:32N 37°55' W 122°22'2 2.3
2014-Oct-30 00:28N 37°55' W 122°25'1 0.9
2014-Oct-29 23:33N 37°54' W 122°25'1 1.2
2014-Oct-29 22:31N 37°54' W 122°23'0 0.0
2014-Oct-29 21:31N 37°54' W 122°23'0 0.0
2014-Oct-29 20:31N 37°54' W 122°23'1 1.2
2014-Oct-29 19:32N 37°55' W 122°22'1 1.2
2014-Oct-29 18:29N 37°54' W 122°23'0 0.1
2014-Oct-29 17:28N 37°54' W 122°23'0 0.0
2014-Oct-29 16:31N 37°54' W 122°23'0 0.0
2014-Oct-29 15:28N 37°54' W 122°23'0 0.0
2014-Oct-29 14:31N 37°54' W 122°23'0 0.0
2014-Oct-29 13:28N 37°54' W 122°23'0 0.0
2014-Oct-29 12:31N 37°54' W 122°23'0 0.0
2014-Oct-29 11:28N 37°54' W 122°23'0 0.0
2014-Oct-29 09:25N 37°54' W 122°23'1 1.1
2014-Oct-29 08:26N 37°54' W 122°22'3 3.2
2014-Oct-29 07:33N 37°55' W 122°25'2 1.7
2014-Oct-29 06:31N 37°54' W 122°23'0 0.0
2014-Oct-29 05:31N 37°54' W 122°23'0 0.0
2014-Oct-29 04:31N 37°54' W 122°23'1 1.1
2014-Oct-29 03:28N 37°55' W 122°22'3 3.1
2014-Oct-29 02:33N 37°54' W 122°25'5 4.8
2014-Oct-29 01:33N 37°50' W 122°22'2 2.0
2014-Oct-29 00:28N 37°49' W 122°20'0 0.0
2014-Oct-28 23:31N 37°49' W 122°20'2 2.1
2014-Oct-28 22:33N 37°48' W 122°18'3 2.5
2014-Oct-28 21:33N 37°48' W 122°21'2 2.1
2014-Oct-28 20:33N 37°49' W 122°19'0 0.0
2014-Oct-28 19:33N 37°49' W 122°19'0 0.0
2014-Oct-28 18:33N 37°49' W 122°19'0 0.0
2014-Oct-28 17:33N 37°49' W 122°19'0 0.0
2014-Oct-28 16:33N 37°49' W 122°19'0 0.0
2014-Oct-28 15:33N 37°49' W 122°19'0 0.0
2014-Oct-28 14:33N 37°49' W 122°19'0 0.0
2014-Oct-28 13:33N 37°49' W 122°19'0 0.0
2014-Oct-28 12:33N 37°49' W 122°19'0 0.0
2014-Oct-28 11:33N 37°49' W 122°19'0 0.0
2014-Oct-28 10:33N 37°49' W 122°19'0 0.0
2014-Oct-28 09:33N 37°49' W 122°19'2 1.5
2014-Oct-28 08:32N 37°48' W 122°20'0 0.3
2014-Oct-28 07:33N 37°49' W 122°20'1 1.3
2014-Oct-28 06:33N 37°49' W 122°19'0 0.0
2014-Oct-28 05:33N 37°49' W 122°19'0 0.0
2014-Oct-28 04:33N 37°49' W 122°19'0 0.0
2014-Oct-28 03:33N 37°49' W 122°19'4 2.0
2014-Oct-28 01:33N 37°51' W 122°23'13 9.7
2014-Oct-28 00:15N 38°03' W 122°18'8 0.5
2014-Oct-27 07:23N 38°02' W 122°08'0 0.0
2014-Oct-25 18:08N 38°02' W 122°09'6 9.2
2014-Oct-25 17:28N 38°04' W 122°16'1010.5
2014-Oct-25 16:33N 37°58' W 122°26'10 9.9
2014-Oct-25 15:33N 37°49' W 122°21'2 1.8
2014-Oct-25 14:32N 37°49' W 122°19'0 0.0
2014-Oct-25 13:32N 37°49' W 122°19'0 0.0
2014-Oct-25 12:32N 37°49' W 122°19'0 0.0
2014-Oct-25 11:32N 37°49' W 122°19'0 0.0
2014-Oct-25 10:32N 37°49' W 122°19'0 0.0
2014-Oct-25 09:32N 37°49' W 122°19'0 0.0
2014-Oct-25 08:32N 37°49' W 122°19'0 0.0
2014-Oct-25 07:32N 37°49' W 122°19'0 0.0
2014-Oct-25 06:32N 37°49' W 122°19'0 0.0
2014-Oct-25 05:32N 37°49' W 122°19'0 0.0
2014-Oct-25 04:32N 37°49' W 122°19'0 0.0
2014-Oct-25 03:32N 37°49' W 122°19'0 0.0
2014-Oct-25 02:32N 37°49' W 122°19'1 0.8
2014-Oct-25 01:33N 37°49' W 122°19'0 0.2
2014-Oct-25 00:33N 37°49' W 122°19'0 0.0
2014-Oct-24 23:33N 37°49' W 122°19'1 1.4
2014-Oct-24 22:33N 37°49' W 122°21'6 5.8
2014-Oct-24 21:33N 37°55' W 122°22'0 0.2
2014-Oct-24 20:27N 37°55' W 122°22'1 1.3
2014-Oct-24 19:33N 37°54' W 122°23'6 6.2
2014-Oct-24 18:34N 37°49' W 122°19'1 0.7
2014-Oct-24 17:30N 37°49' W 122°19'0 0.0
2014-Oct-24 16:33N 37°49' W 122°19'2 1.7
2014-Oct-24 15:34N 37°48' W 122°20'2 1.9
2014-Oct-24 14:33N 37°48' W 122°18'1 1.0
2014-Oct-24 13:32N 37°48' W 122°19'3 2.6
2014-Oct-24 12:33N 37°48' W 122°22'2 1.9
2014-Oct-24 11:33N 37°49' W 122°20'0 0.0
2014-Oct-24 10:33N 37°49' W 122°20'0 0.0
2014-Oct-24 09:33N 37°49' W 122°20'0 0.0
2014-Oct-24 08:33N 37°49' W 122°20'0 0.0
2014-Oct-24 07:33N 37°49' W 122°20'0 0.0
2014-Oct-24 06:33N 37°49' W 122°20'0 0.0
2014-Oct-24 05:33N 37°49' W 122°20'0 0.0
2014-Oct-24 04:33N 37°49' W 122°20'6 6.2
2014-Oct-24 03:33N 37°54' W 122°23'1 0.8
2014-Oct-24 02:33N 37°54' W 122°22'4 4.2
2014-Oct-24 01:33N 37°57' W 122°26'1 1.0
2014-Oct-24 00:33N 37°58' W 122°26'8 8.4
2014-Oct-23 23:33N 38°03' W 122°18'  
2014-Oct-21 17:30N 38°03' W 122°12'9 9.6
2014-Oct-21 16:33N 38°01' W 122°23'1010.0
2014-Oct-21 15:33N 37°51' W 122°23'4 3.4
2014-Oct-21 14:29N 37°49' W 122°19'0 0.0
2014-Oct-21 13:32N 37°49' W 122°19'0 0.0
2014-Oct-21 12:29N 37°49' W 122°19'0 0.0
2014-Oct-21 11:32N 37°49' W 122°19'0 0.0
2014-Oct-21 10:32N 37°49' W 122°19'0 0.0
2014-Oct-21 09:32N 37°49' W 122°19'0 0.0
2014-Oct-21 08:32N 37°49' W 122°19'0 0.0
2014-Oct-21 07:32N 37°49' W 122°19'0 0.0
2014-Oct-21 06:32N 37°49' W 122°19'0 0.0
2014-Oct-21 05:32N 37°49' W 122°19'0 0.0
2014-Oct-21 04:32N 37°49' W 122°19'  
Track history (hours):
 
Tides and Currents Weather Stations Pressure Air Temp Water Temp Dewpoint Dewpoint Depression Visibility Wind Speed Wind Dir Waves Ship Positions

Sandra Hugh

Owner: Sortwell Inc., DBA AmNav Maritime Services, Oakland, CA. More information available from US FCC via Universal Licensing System and Coast Guard Vessel Documentation Center.

Last reported at 2014-Oct-31 03:33 UTC. Time now 2014-Oct-31 04:01 UTC.
Position N 37°48' W 122°18'.

Length 24 m; draft 4.9 m.

Type: Tug. MMSI: 367305920.

Date/timePositionNaut miles runAvg speedWind from/ knotsBaromVisibWave heightAir tempDewpointWater temp
2014-Oct-31 03:33N 37°48' W 122°18'1 0.8
2014-Oct-31 02:32N 37°48' W 122°19'1 1.1
2014-Oct-31 01:32N 37°48' W 122°17'0 0.0
2014-Oct-31 00:32N 37°48' W 122°17'2 1.7
2014-Oct-30 23:31N 37°48' W 122°19'2 2.5
2014-Oct-30 22:33N 37°48' W 122°22'3 3.1
2014-Oct-30 21:31N 37°49' W 122°19'0 0.0
2014-Oct-30 20:31N 37°49' W 122°19'0 0.0
2014-Oct-30 19:31N 37°49' W 122°19'0 0.0
2014-Oct-30 18:31N 37°49' W 122°19'0 0.0
2014-Oct-30 17:31N 37°49' W 122°19'0 0.0
2014-Oct-30 16:31N 37°49' W 122°19'0 0.0
2014-Oct-30 15:31N 37°49' W 122°19'2 1.8
2014-Oct-30 14:33N 37°48' W 122°19'3 2.7
2014-Oct-30 13:32N 37°47' W 122°22'2 2.4
2014-Oct-30 12:32N 37°49' W 122°20'0 0.0
2014-Oct-30 11:32N 37°49' W 122°20'0 0.0
2014-Oct-30 10:32N 37°49' W 122°20'0 0.0
2014-Oct-30 09:32N 37°49' W 122°20'0 0.0
2014-Oct-30 08:32N 37°49' W 122°20'0 0.0
2014-Oct-30 07:32N 37°49' W 122°20'0 0.0
2014-Oct-30 06:32N 37°49' W 122°20'6 6.3
2014-Oct-30 05:33N 37°54' W 122°23'1 1.0
2014-Oct-30 04:31N 37°55' W 122°22'0 0.1
2014-Oct-30 03:32N 37°55' W 122°22'0 0.0
2014-Oct-30 02:32N 37°55' W 122°22'0 0.0
2014-Oct-30 01:32N 37°55' W 122°22'2 2.3
2014-Oct-30 00:28N 37°55' W 122°25'1 0.9
2014-Oct-29 23:33N 37°54' W 122°25'1 1.2
2014-Oct-29 22:31N 37°54' W 122°23'0 0.0
2014-Oct-29 21:31N 37°54' W 122°23'0 0.0
2014-Oct-29 20:31N 37°54' W 122°23'1 1.2
2014-Oct-29 19:32N 37°55' W 122°22'1 1.2
2014-Oct-29 18:29N 37°54' W 122°23'0 0.1
2014-Oct-29 17:28N 37°54' W 122°23'0 0.0
2014-Oct-29 16:31N 37°54' W 122°23'0 0.0
2014-Oct-29 15:28N 37°54' W 122°23'0 0.0
2014-Oct-29 14:31N 37°54' W 122°23'0 0.0
2014-Oct-29 13:28N 37°54' W 122°23'0 0.0
2014-Oct-29 12:31N 37°54' W 122°23'0 0.0
2014-Oct-29 11:28N 37°54' W 122°23'0 0.0
2014-Oct-29 09:25N 37°54' W 122°23'1 1.1
2014-Oct-29 08:26N 37°54' W 122°22'3 3.2
2014-Oct-29 07:33N 37°55' W 122°25'2 1.7
2014-Oct-29 06:31N 37°54' W 122°23'0 0.0
2014-Oct-29 05:31N 37°54' W 122°23'0 0.0
2014-Oct-29 04:31N 37°54' W 122°23'1 1.1
2014-Oct-29 03:28N 37°55' W 122°22'3 3.1
2014-Oct-29 02:33N 37°54' W 122°25'5 4.8
2014-Oct-29 01:33N 37°50' W 122°22'2 2.0
2014-Oct-29 00:28N 37°49' W 122°20'0 0.0
2014-Oct-28 23:31N 37°49' W 122°20'2 2.1
2014-Oct-28 22:33N 37°48' W 122°18'3 2.5
2014-Oct-28 21:33N 37°48' W 122°21'2 2.1
2014-Oct-28 20:33N 37°49' W 122°19'0 0.0
2014-Oct-28 19:33N 37°49' W 122°19'0 0.0
2014-Oct-28 18:33N 37°49' W 122°19'0 0.0
2014-Oct-28 17:33N 37°49' W 122°19'0 0.0
2014-Oct-28 16:33N 37°49' W 122°19'0 0.0
2014-Oct-28 15:33N 37°49' W 122°19'0 0.0
2014-Oct-28 14:33N 37°49' W 122°19'0 0.0
2014-Oct-28 13:33N 37°49' W 122°19'0 0.0
2014-Oct-28 12:33N 37°49' W 122°19'0 0.0
2014-Oct-28 11:33N 37°49' W 122°19'0 0.0
2014-Oct-28 10:33N 37°49' W 122°19'0 0.0
2014-Oct-28 09:33N 37°49' W 122°19'2 1.5
2014-Oct-28 08:32N 37°48' W 122°20'0 0.3
2014-Oct-28 07:33N 37°49' W 122°20'1 1.3
2014-Oct-28 06:33N 37°49' W 122°19'0 0.0
2014-Oct-28 05:33N 37°49' W 122°19'0 0.0
2014-Oct-28 04:33N 37°49' W 122°19'0 0.0
2014-Oct-28 03:33N 37°49' W 122°19'4 2.0
2014-Oct-28 01:33N 37°51' W 122°23'13 9.7
2014-Oct-28 00:15N 38°03' W 122°18'8 0.5
2014-Oct-27 07:23N 38°02' W 122°08'0 0.0
2014-Oct-25 18:08N 38°02' W 122°09'6 9.2
2014-Oct-25 17:28N 38°04' W 122°16'1010.5
2014-Oct-25 16:33N 37°58' W 122°26'10 9.9
2014-Oct-25 15:33N 37°49' W 122°21'2 1.8
2014-Oct-25 14:32N 37°49' W 122°19'0 0.0
2014-Oct-25 13:32N 37°49' W 122°19'0 0.0
2014-Oct-25 12:32N 37°49' W 122°19'0 0.0
2014-Oct-25 11:32N 37°49' W 122°19'0 0.0
2014-Oct-25 10:32N 37°49' W 122°19'0 0.0
2014-Oct-25 09:32N 37°49' W 122°19'0 0.0
2014-Oct-25 08:32N 37°49' W 122°19'0 0.0
2014-Oct-25 07:32N 37°49' W 122°19'0 0.0
2014-Oct-25 06:32N 37°49' W 122°19'0 0.0
2014-Oct-25 05:32N 37°49' W 122°19'0 0.0
2014-Oct-25 04:32N 37°49' W 122°19'0 0.0
2014-Oct-25 03:32N 37°49' W 122°19'0 0.0
2014-Oct-25 02:32N 37°49' W 122°19'1 0.8
2014-Oct-25 01:33N 37°49' W 122°19'0 0.2
2014-Oct-25 00:33N 37°49' W 122°19'0 0.0
2014-Oct-24 23:33N 37°49' W 122°19'1 1.4
2014-Oct-24 22:33N 37°49' W 122°21'6 5.8
2014-Oct-24 21:33N 37°55' W 122°22'0 0.2
2014-Oct-24 20:27N 37°55' W 122°22'1 1.3
2014-Oct-24 19:33N 37°54' W 122°23'6 6.2
2014-Oct-24 18:34N 37°49' W 122°19'1 0.7
2014-Oct-24 17:30N 37°49' W 122°19'0 0.0
2014-Oct-24 16:33N 37°49' W 122°19'2 1.7
2014-Oct-24 15:34N 37°48' W 122°20'2 1.9
2014-Oct-24 14:33N 37°48' W 122°18'1 1.0
2014-Oct-24 13:32N 37°48' W 122°19'3 2.6
2014-Oct-24 12:33N 37°48' W 122°22'2 1.9
2014-Oct-24 11:33N 37°49' W 122°20'0 0.0
2014-Oct-24 10:33N 37°49' W 122°20'0 0.0
2014-Oct-24 09:33N 37°49' W 122°20'0 0.0
2014-Oct-24 08:33N 37°49' W 122°20'0 0.0
2014-Oct-24 07:33N 37°49' W 122°20'0 0.0
2014-Oct-24 06:33N 37°49' W 122°20'0 0.0
2014-Oct-24 05:33N 37°49' W 122°20'0 0.0
2014-Oct-24 04:33N 37°49' W 122°20'6 6.2
2014-Oct-24 03:33N 37°54' W 122°23'1 0.8
2014-Oct-24 02:33N 37°54' W 122°22'4 4.2
2014-Oct-24 01:33N 37°57' W 122°26'1 1.0
2014-Oct-24 00:33N 37°58' W 122°26'8 8.4
2014-Oct-23 23:33N 38°03' W 122°18'  
2014-Oct-21 17:30N 38°03' W 122°12'9 9.6
2014-Oct-21 16:33N 38°01' W 122°23'1010.0
2014-Oct-21 15:33N 37°51' W 122°23'4 3.4
2014-Oct-21 14:29N 37°49' W 122°19'0 0.0
2014-Oct-21 13:32N 37°49' W 122°19'0 0.0
2014-Oct-21 12:29N 37°49' W 122°19'0 0.0
2014-Oct-21 11:32N 37°49' W 122°19'0 0.0
2014-Oct-21 10:32N 37°49' W 122°19'0 0.0
2014-Oct-21 09:32N 37°49' W 122°19'0 0.0
2014-Oct-21 08:32N 37°49' W 122°19'0 0.0
2014-Oct-21 07:32N 37°49' W 122°19'0 0.0
2014-Oct-21 06:32N 37°49' W 122°19'0 0.0
2014-Oct-21 05:32N 37°49' W 122°19'0 0.0
2014-Oct-21 04:32N 37°49' W 122°19'  

Dump ship's entire track history